{"data":{"norad_id":52302,"intl_designator":"2022-041AT","name":"STARLINK-3564","alt_names":[],"object_type":"PAYLOAD","status":"ACTIVE","operator":null,"country":"US","launch_date":"2022-04-21","launch_site_code":"AFETR","launch_vehicle":null,"mission":null,"orbit_class":"UNKNOWN","rcs_meters":null,"size_class":null,"mass_kg":null,"dimensions":null,"purposes":["comms"],"wikipedia_slug":null,"has_3d_model":false,"image_url":null,"decayed_at":null,"tle_current":{"epoch":"2026-05-25T03:42:55.126080Z","epoch_age_seconds":75847,"freshness":"FRESH","line1":"1 52302U 22041AT  26145.15480470  .00000541  00000+0  52048-4 0  9990","line2":"2 52302  53.2162 105.8555 0001294  75.9203 284.1932 15.08843048226183","mean_motion":15.08843048,"eccentricity":0.0001294,"inclination_deg":53.2162,"raan_deg":105.8555,"arg_perigee_deg":75.9203,"mean_anomaly_deg":284.1932,"bstar":5.2048e-5,"rev_number":22618,"period_min":95.437361885237,"perigee_km":538.83889994638,"apogee_km":540.62924497994,"semimajor_km":6917.8710724632,"source":"CELESTRAK","updated_at":"2026-05-25T13:38:17.108805Z"}}}